Regional Weather Roundup
Issued by NWS

Home | Current Version | Previous Version | Graphics & Text | Print | Product List | Glossary On
Versions: 1 2 3 4 5 6 7 8 9 10 11 12 13 14 15 16 17 18 19 20 21 22 23 24 25 26 27 28 29 30 31 32 33 34 35 36 37 38 39 40 41 42 43 44 45 46 47 48 49 50
000
ASUS45 KBOU 101510
RWRCO

WEATHER ROUNDUP FOR COLORADO
NATIONAL WEATHER SERVICE DENVER/BOULDER CO
800 AM MST SUN DEC 10 2017

NOTE: "FAIR" INDICATES FEW OR NO CLOUDS BELOW 12000 FEET WITH NO
SIGNIFICANT WEATHER AND/OR OBSTRUCTIONS TO VISIBILITY.

COZ001>005-013-030-031-101600-
...NORTHWEST COLORADO...

CITY           SKY/WX    TMP DP  RH WIND       PRES   REMARKS
CRAIG          FAIR       2  -1  88 CALM      30.60R
HAYDEN         FAIR      15   7  70 E13       30.60R WCI   1
MEEKER         FAIR      12   3  67 CALM      30.59R
RABBIT EARS PA FAIR      23   0  36 W3        30.57S
STEAMBOAT SPGS FAIR       9   7  89 CALM      30.59S
WALDEN         FAIR       1  -6  71 CALM      30.58R
$$

COZ006>008-011-101600-
...WEST CENTRAL VALLEYS...

CITY           SKY/WX    TMP DP  RH WIND       PRES   REMARKS
GRAND JUNCTION FAIR      19   6  57 SE6       30.60R WCI  11
MONTROSE       FAIR      14   1  56 S7        30.63R WCI   4
EAGLE          FAIR       3  -1  83 CALM      30.72R
RIFLE          FAIR      14   5  67 CALM      30.63S
DELTA          FAIR      15   2  54 CALM      30.64R
NUCLA          FAIR      14  -8  37 E7        30.62R WCI   4
$$

COZ017>023-064>068-101600-
...SOUTHWEST COLORADO...

CITY           SKY/WX    TMP DP  RH WIND       PRES   REMARKS
DURANGO        FAIR      12  -1  56 CALM      30.54R
CORTEZ         FAIR       5  -5  63 NE9       30.56R WCI  -9
PAGOSA SPRINGS FAIR      16  -4  40 CALM      30.55R
TELLURIDE      FAIR      26 -17  14 E3        30.59R
WOLF CREEK PAS FAIR      28 -33   6 NW3       30.66R
$$

COZ009-010-012-014-032>034-037-058>063-101600-
...CENTRAL COLORADO...

CITY           SKY/WX    TMP DP  RH WIND       PRES   REMARKS
ASPEN          FAIR      11  -1  58 VRB3      30.58S
BUENA VISTA    FAIR      16  -2  44 W7        30.55R WCI   7
COPPER MTN     NOT AVBL
BERTHOUD PASS  FAIR      14   3  62 NW20G29   30.56R WCI  -3
COTTONWOOD PAS FAIR      37 -26   6 CALM      30.55R
GUNNISON       FAIR       1  -5  75 CALM      30.67R
KREMMLING      HAZE       7   1  78 CALM      30.70R VSB<1/4
LEADVILLE      FAIR      14 -13  29 NE9       30.55S WCI   2
MONARCH PASS   FAIR      23 -22  13 W13G22    30.69S WCI  11
SALIDA         FAIR      24  -3  31 W6        30.62S WCI  16
SUNLIGHT       FAIR      27 -17  14 CALM      30.63S
WILKERSON PASS FAIR      30 -31   6 NW7G22    30.57S WCI  23
$$

COZ069>075-101600-
...SAN LUIS VALLEY/SANGRE DE CRISTO MOUNTAINS...

CITY           SKY/WX    TMP DP  RH WIND       PRES   REMARKS
ALAMOSA        FAIR       8   0  69 CALM      30.56S
DEL NORTE      FAIR      21 -11  23 W15       30.57S WCI   8
LA VETA PASS   FAIR      27  -8  22 SW20        N/A  WCI  13
SAGUACHE       FAIR      19  -4  35 CALM      30.57R
$$

COZ035-036-038>040-101600-
...NORTHERN COLORADO FRONT RANGE...

CITY           SKY/WX    TMP DP  RH WIND       PRES   REMARKS
DENVER INTL AP FAIR      37  -4  17 SW15      30.40R
DMNS CITY PARK NOT AVBL
AURORA         PTCLDY    34  -3  20 S9        30.41R WCI  26
FRONT RANGE AP PTCLDY    39  -4  16 S10       30.40R
ERIE MUNI ARPT FAIR      20   8  58 CALM      30.46R
BOULDER MUN AP FAIR      34   1  25 N5        30.40R WCI  30
CENTENNIAL     FAIR      27   2  34 S5        30.41S WCI  22
BROOMFIELD     CLEAR     32   5  32 SW3       30.40R
FORT COLLINS   FAIR      26  10  50 CALM      30.41
LONGMONT       FAIR      24  11  57 CALM      30.42S
$$

COZ041-046-047-076>085-087-088-101600-
...PIKES PEAK/PALMER DIVIDE AND SOUTHERN FOOTHILLS...

CITY           SKY/WX    TMP DP  RH WIND       PRES   REMARKS
COLO. SPRINGS  FAIR      30  -1  26 N8        30.45R WCI  22
A. F. ACADEMY  FAIR      24  -4  28 MISG      30.45R
SCHRIEVER AFB  FAIR      38  -6  14 CALM      30.45R
CHEYENNE MTN   FAIR      42  -8  11 CALM      30.40R
ELLICOTT         N/A    N/A N/A N/A CALM      30.43R
FALCON         FAIR      31  -2  24 W7        30.46S WCI  24
FORT CARSON    FAIR      33  -3  21 N13       30.43R WCI  24
LIMON          FAIR      20   1  43 N3        30.42S
MONUMENT HILL  FAIR      28   0  29 SW8       30.46S WCI  20
CANON CITY     FAIR      39   0  19 W16       30.43S
WALSENBURG     FAIR      37  -2  18 SW12      30.45R
TRINIDAD       FAIR      33   4  29 W16       30.45R WCI  23
$$

COZ042>045-048>051-090-091-101600-
...NORTHEAST COLORADO...

CITY           SKY/WX    TMP DP  RH WIND       PRES   REMARKS
GREELEY ARPT   FAIR      15   3  59 NW5       30.42R WCI   8
AKRON          FAIR      31   0  26 W16       30.37S WCI  20
BURLINGTON     FAIR      37   5  26 W10       30.37R
WRAY           FAIR      39   3  22 W13G18    30.34S
YUMA           FAIR      34   3  27 W15       30.36R WCI  24
STERLING       FAIR      23  10  58 S7        30.38R WCI  15
HOLYOKE        FAIR      37  10  32 W12       30.34R
FORT MORGAN    FAIR      22   6  49 W12       30.39S WCI  11
$$

COZ086-089-092>099-101600-
...SOUTHEAST COLORADO...

CITY           SKY/WX    TMP DP  RH WIND       PRES   REMARKS
PUEBLO         FAIR      23   3  42 W5        30.44R WCI  17
LA JUNTA       FAIR      29   4  34 SW6       30.44R WCI  23
LAMAR          FAIR      30   4  33 SW9       30.41S WCI  22
SPRINGFIELD      N/A     38   6  26 W10       30.41S
$$



USA.gov is the U.S. government's official web portal to all federal, state and local government web resources and services.